,,,PA_Meas_PMT16A,,PR_Meas_QMR101_102,,RH_Meas_QMH101,,SR_Meas_QMS101,,TA_Meas_QMH101,,GenWind,,GenWind,
date,time,status,PA,status,PR,status,RH,status,SR,status,TA,status,DirAvg,status,SpdAvg,
2010-12-14, 00:00:04,VALID,1009.03,VALID,0,VALID,104,VALID,0,VALID,23.2654,VALID,357,VALID,0.133984,
2010-12-14, 00:01:04,VALID,1008.99,VALID,0,VALID,104,VALID,0,VALID,23.2654,VALID,357,VALID,0.225,
2010-12-14, 00:02:04,VALID,1009.03,VALID,0,VALID,104,VALID,0,VALID,23.2246,VALID,357,VALID,0.215234,
2010-12-14, 00:03:04,VALID,1009.03,VALID,0,VALID,104,VALID,0,VALID,23.2459,VALID,357,VALID,0.6125,
2010-12-14, 00:04:04,VALID,1009.02,VALID,0,VALID,104,VALID,0,VALID,23.2264,VALID,357,VALID,0.339453,
2010-12-14, 00:05:04,VALID,1009.01,VALID,0,VALID,104,VALID,0,VALID,23.2069,VALID,357,VALID,0.046875,
2010-12-14, 00:06:04,VALID,1008.94,VALID,0,VALID,104,VALID,0,VALID,23.1874,VALID,357,VALID,0,
2010-12-14, 00:07:04,VALID,1008.92,VALID,0,VALID,104,VALID,0,VALID,23.1874,VALID,313,VALID,0.442187,
2010-12-14, 00:08:04,VALID,1008.87,VALID,0,VALID,104,VALID,0,VALID,23.1874,VALID,327,VALID,0.269922,
2010-12-14, 00:09:04,VALID,1008.83,VALID,0,VALID,104,VALID,0,VALID,23.1679,VALID,255,VALID,0.532031,
2010-12-14, 00:10:04,VALID,1008.83,VALID,0,VALID,104,VALID,0,VALID,23.2051,VALID,229,VALID,0.4875,
2010-12-14, 00:11:04,VALID,1008.8,VALID,0,VALID,104,VALID,0,VALID,23.2459,VALID,229,VALID,0.059375,
2010-12-14, 00:12:04,VALID,1008.8,VALID,0,VALID,104,VALID,0,VALID,23.2459,VALID,229,VALID,0.20625,
2010-12-14, 00:13:04,VALID,1008.81,VALID,0,VALID,104,VALID,0,VALID,23.2264,VALID,282,VALID,0.115625,
2010-12-14, 00:14:04,VALID,1008.8,VALID,0,VALID,104,VALID,0.105969,VALID,23.2264,VALID,282,VALID,0,
2010-12-14, 00:15:04,VALID,1008.77,VALID,0,VALID,104,VALID,0,VALID,23.2264,VALID,282,VALID,0.096875,
2010-12-14, 00:16:04,VALID,1008.76,VALID,0,VALID,104,VALID,0,VALID,23.1857,VALID,282,VALID,0,
2010-12-14, 00:17:04,VALID,1008.75,VALID,0,VALID,104,VALID,0,VALID,23.2264,VALID,282,VALID,0.0273438,
2010-12-14, 00:18:04,VALID,1008.74,VALID,0,VALID,104,VALID,0,VALID,23.2246,VALID,282,VALID,0.2,
2010-12-14, 00:19:04,VALID,1008.76,VALID,0,VALID,104,VALID,0,VALID,23.2654,VALID,282,VALID,0,
2010-12-14, 00:20:04,VALID,1008.77,VALID,0,VALID,104,VALID,0,VALID,23.2848,VALID,282,VALID,0,
2010-12-14, 00:21:04,VALID,1008.75,VALID,0,VALID,104,VALID,0,VALID,23.2848,VALID,282,VALID,0,
2010-12-14, 00:22:04,VALID,1008.8,VALID,0,VALID,104,VALID,0,VALID,23.2636,VALID,282,VALID,0,
2010-12-14, 00:23:04,VALID,1008.82,VALID,0,VALID,104,VALID,0,VALID,23.2654,VALID,282,VALID,0,
2010-12-14, 00:24:04,VALID,1008.81,VALID,0,VALID,104,VALID,0,VALID,23.2264,VALID,235,VALID,0.415625,
2010-12-14, 00:25:04,VALID,1008.8,VALID,0,VALID,104,VALID,0,VALID,23.2654,VALID,235,VALID,0.482812,
2010-12-14, 00:26:04,VALID,1008.82,VALID,0,VALID,104,VALID,0,VALID,23.2654,VALID,235,VALID,0.392969,
2010-12-14, 00:27:04,VALID,1008.81,VALID,0,VALID,104,VALID,0,VALID,23.2848,VALID,235,VALID,0.336719,
2010-12-14, 00:28:04,VALID,1008.83,VALID,0,VALID,104,VALID,0,VALID,23.3043,VALID,235,VALID,0.288281,
2010-12-14, 00:29:04,VALID,1008.79,VALID,0,VALID,104,VALID,0,VALID,23.3043,VALID,235,VALID,0.233984,
2010-12-14, 00:30:04,VALID,1008.8,VALID,0,VALID,104,VALID,0,VALID,23.3043,VALID,235,VALID,0.245703,
2010-12-14, 00:31:04,VALID,1008.79,VALID,0,VALID,104,VALID,0,VALID,23.3026,VALID,235,VALID,0.107813,
2010-12-14, 00:32:04,VALID,1008.79,VALID,0,VALID,104,VALID,0,VALID,23.3238,VALID,235,VALID,0.128906,
2010-12-14, 00:33:04,VALID,1008.8,VALID,0,VALID,104,VALID,0,VALID,23.3238,VALID,235,VALID,0.0203125,
2010-12-14, 00:34:04,VALID,1008.79,VALID,0,VALID,104,VALID,0,VALID,23.3043,VALID,235,VALID,0.203125,
2010-12-14, 00:35:04,VALID,1008.82,VALID,0,VALID,104,VALID,0,VALID,23.2848,VALID,235,VALID,0.438672,
2010-12-14, 00:36:04,VALID,1008.77,VALID,0,VALID,104,VALID,0,VALID,23.2848,VALID,235,VALID,0.434375,
2010-12-14, 00:37:04,VALID,1008.77,VALID,0,VALID,104,VALID,0,VALID,23.2848,VALID,235,VALID,0.0800781,
2010-12-14, 00:38:04,VALID,1008.76,VALID,0,VALID,104,VALID,0,VALID,23.2848,VALID,235,VALID,0.121875,
2010-12-14, 00:39:04,VALID,1008.75,VALID,0,VALID,104,VALID,0,VALID,23.2441,VALID,235,VALID,0.0707031,
2010-12-14, 00:40:04,VALID,1008.73,VALID,0,VALID,104,VALID,0,VALID,23.2636,VALID,235,VALID,0.157422,
2010-12-14, 00:41:04,VALID,1008.74,VALID,0,VALID,104,VALID,0.105969,VALID,23.2831,VALID,235,VALID,0,
2010-12-14, 00:42:04,VALID,1008.72,VALID,0,VALID,104,VALID,0,VALID,23.2848,VALID,235,VALID,0.229297,
2010-12-14, 00:43:04,VALID,1008.7,VALID,0,VALID,104,VALID,0,VALID,23.2441,VALID,235,VALID,0.0425781,
2010-12-14, 00:44:04,VALID,1008.73,VALID,0,VALID,104,VALID,0.105969,VALID,23.2246,VALID,235,VALID,0,
2010-12-14, 00:45:04,VALID,1008.71,VALID,0,VALID,104,VALID,0,VALID,23.2459,VALID,235,VALID,0,
2010-12-14, 00:46:04,VALID,1008.71,VALID,0,VALID,104,VALID,0,VALID,23.2654,VALID,235,VALID,0,
2010-12-14, 00:47:04,VALID,1008.7,VALID,0,VALID,104,VALID,0,VALID,23.2654,VALID,235,VALID,0,
2010-12-14, 00:48:04,VALID,1008.71,VALID,0,VALID,104,VALID,0,VALID,23.2654,VALID,235,VALID,0,
2010-12-14, 00:49:04,VALID,1008.7,VALID,0,VALID,104,VALID,0.105969,VALID,23.2848,VALID,235,VALID,0,
2010-12-14, 00:50:04,VALID,1008.69,VALID,0,VALID,104,VALID,0.105969,VALID,23.2636,VALID,235,VALID,0,
2010-12-14, 00:51:04,VALID,1008.67,VALID,0,VALID,104,VALID,0.105969,VALID,23.2441,VALID,235,VALID,0,
2010-12-14, 00:52:04,VALID,1008.69,VALID,0,VALID,104,VALID,0.105969,VALID,23.2459,VALID,235,VALID,0,
2010-12-14, 00:53:04,VALID,1008.66,VALID,0,VALID,104,VALID,0.105969,VALID,23.2441,VALID,235,VALID,0,
2010-12-14, 00:54:04,VALID,1008.69,VALID,0,VALID,104,VALID,0.105969,VALID,23.2636,VALID,235,VALID,0,
2010-12-14, 00:55:04,VALID,1008.68,VALID,0,VALID,104,VALID,0,VALID,23.2848,VALID,235,VALID,0,
2010-12-14, 00:56:04,VALID,1008.64,VALID,0,VALID,104,VALID,0,VALID,23.3043,VALID,235,VALID,0,
2010-12-14, 00:57:04,VALID,1008.64,VALID,0,VALID,104,VALID,0,VALID,23.2848,VALID,235,VALID,0,
2010-12-14, 00:58:04,VALID,1008.64,VALID,0,VALID,104,VALID,0.105969,VALID,23.3043,VALID,235,VALID,0,
2010-12-14, 00:59:04,VALID,1008.62,VALID,0,VALID,104,VALID,0,VALID,23.2636,VALID,235,VALID,0,
2010-12-14, 01:00:04,VALID,1008.59,VALID,0,VALID,104,VALID,0.105969,VALID,23.2654,VALID,235,VALID,0,
2010-12-14, 01:01:04,VALID,1008.6,VALID,0,VALID,104,VALID,0.105969,VALID,23.2441,VALID,235,VALID,0,
2010-12-14, 01:02:04,VALID,1008.61,VALID,0,VALID,104,VALID,0,VALID,23.2441,VALID,235,VALID,0,
2010-12-14, 01:03:04,VALID,1008.61,VALID,0,VALID,104,VALID,0,VALID,23.2246,VALID,235,VALID,0,
2010-12-14, 01:04:04,VALID,1008.63,VALID,0,VALID,104,VALID,0,VALID,23.2441,VALID,235,VALID,0,
2010-12-14, 01:05:04,VALID,1008.62,VALID,0,VALID,104,VALID,0.105969,VALID,23.2636,VALID,235,VALID,0.0046875,
2010-12-14, 01:06:04,VALID,1008.64,VALID,0,VALID,104,VALID,0.105969,VALID,23.2441,VALID,280,VALID,0.565625,
2010-12-14, 01:07:04,VALID,1008.64,VALID,0,VALID,104,VALID,0.105969,VALID,23.2246,VALID,1,VALID,0.642578,
2010-12-14, 01:08:04,VALID,1008.63,VALID,0,VALID,104,VALID,0,VALID,23.2246,VALID,53,VALID,1.06055,
2010-12-14, 01:09:04,VALID,1008.6,VALID,0,VALID,104,VALID,0.105969,VALID,23.2636,VALID,78,VALID,1.39922,
2010-12-14, 01:10:04,VALID,1008.59,VALID,0,VALID,104,VALID,0.105969,VALID,23.3043,VALID,87,VALID,2.13516,
2010-12-14, 01:11:04,VALID,1008.57,VALID,0,VALID,104,VALID,0,VALID,23.3433,VALID,73,VALID,1.00195,
2010-12-14, 01:12:04,VALID,1008.58,VALID,0,VALID,104,VALID,0.105969,VALID,23.3433,VALID,45,VALID,1.48477,
2010-12-14, 01:13:04,VALID,1008.52,VALID,0,VALID,104,VALID,0,VALID,23.3433,VALID,35,VALID,1.16367,
2010-12-14, 01:14:04,VALID,1008.5,VALID,0,VALID,104,VALID,0,VALID,23.3026,VALID,29,VALID,0.142578,
2010-12-14, 01:15:04,VALID,1008.48,VALID,0,VALID,104,VALID,0.105969,VALID,23.322,VALID,29,VALID,0.394922,
2010-12-14, 01:16:04,VALID,1008.51,VALID,0,VALID,104,VALID,0.105969,VALID,23.3238,VALID,29,VALID,0.439453,
2010-12-14, 01:17:04,VALID,1008.52,VALID,0,VALID,104,VALID,0,VALID,23.322,VALID,31,VALID,0.626172,
2010-12-14, 01:18:04,VALID,1008.5,VALID,0,VALID,104,VALID,0,VALID,23.3628,VALID,35,VALID,0.373828,
2010-12-14, 01:19:04,VALID,1008.53,VALID,0,VALID,104,VALID,0,VALID,23.322,VALID,92,VALID,1.025,
2010-12-14, 01:20:04,VALID,1008.51,VALID,0,VALID,104,VALID,0.105969,VALID,23.3415,VALID,82,VALID,0.579297,
2010-12-14, 01:21:04,VALID,1008.51,VALID,0,VALID,104,VALID,0.105969,VALID,23.361,VALID,82,VALID,0.351953,
2010-12-14, 01:22:04,VALID,1008.53,VALID,0,VALID,104,VALID,0,VALID,23.3628,VALID,60,VALID,0.553906,
2010-12-14, 01:23:04,VALID,1008.5,VALID,0,VALID,104,VALID,0.105969,VALID,23.322,VALID,60,VALID,0.362109,
2010-12-14, 01:24:04,VALID,1008.52,VALID,0,VALID,104,VALID,0,VALID,23.3238,VALID,59,VALID,0.645312,
2010-12-14, 01:25:04,VALID,1008.51,VALID,0,VALID,104,VALID,0,VALID,23.2831,VALID,63,VALID,0.684766,
2010-12-14, 01:26:04,VALID,1008.5,VALID,0,VALID,104,VALID,0,VALID,23.2441,VALID,62,VALID,0.796875,
2010-12-14, 01:27:04,VALID,1008.51,VALID,0,VALID,104,VALID,0,VALID,23.2264,VALID,41,VALID,0.852734,
2010-12-14, 01:28:04,VALID,1008.5,VALID,0,VALID,104,VALID,0.105969,VALID,23.2051,VALID,55,VALID,0.610937,
2010-12-14, 01:29:04,VALID,1008.49,VALID,0,VALID,104,VALID,0.105969,VALID,23.1857,VALID,69,VALID,0.330078,
2010-12-14, 01:30:04,VALID,1008.5,VALID,0,VALID,104,VALID,0,VALID,23.2069,VALID,68,VALID,0.870313,
2010-12-14, 01:31:04,VALID,1008.51,VALID,0,VALID,104,VALID,0,VALID,23.2069,VALID,79,VALID,1.08477,
2010-12-14, 01:32:04,VALID,1008.52,VALID,0,VALID,104,VALID,0,VALID,23.1662,VALID,83,VALID,0.909375,
2010-12-14, 01:33:04,VALID,1008.52,VALID,0,VALID,104,VALID,0,VALID,23.1857,VALID,64,VALID,0.599609,
2010-12-14, 01:34:04,VALID,1008.54,VALID,0,VALID,104,VALID,0.105969,VALID,23.1662,VALID,93,VALID,0.371875,
2010-12-14, 01:35:04,VALID,1008.54,VALID,0,VALID,104,VALID,0.105969,VALID,23.2069,VALID,40,VALID,0.119141,
2010-12-14, 01:36:04,VALID,1008.51,VALID,0,VALID,104,VALID,0,VALID,23.1467,VALID,41,VALID,0.228906,
2010-12-14, 01:37:04,VALID,1008.49,VALID,0,VALID,104,VALID,0,VALID,23.129,VALID,353,VALID,0.4375,
2010-12-14, 01:38:04,VALID,1008.46,VALID,0,VALID,104,VALID,0,VALID,23.129,VALID,77,VALID,1.01914,
2010-12-14, 01:39:04,VALID,1008.47,VALID,0,VALID,104,VALID,0.105969,VALID,23.1095,VALID,77,VALID,0.857422,
2010-12-14, 01:40:04,VALID,1008.47,VALID,0,VALID,104,VALID,0,VALID,23.09,VALID,76,VALID,0.594922,
2010-12-14, 01:41:04,VALID,1008.46,VALID,0,VALID,104,VALID,0,VALID,23.09,VALID,77,VALID,0.241016,
2010-12-14, 01:42:04,VALID,1008.43,VALID,0,VALID,104,VALID,0,VALID,23.1095,VALID,59,VALID,0.849219,
2010-12-14, 01:43:04,VALID,1008.42,VALID,0,VALID,104,VALID,0,VALID,23.0705,VALID,61,VALID,0.422656,
2010-12-14, 01:44:04,VALID,1008.39,VALID,0,VALID,104,VALID,0,VALID,23.0511,VALID,56,VALID,0.561719,
2010-12-14, 01:45:04,VALID,1008.4,VALID,0,VALID,104,VALID,0,VALID,23.0511,VALID,61,VALID,0.462891,
2010-12-14, 01:46:04,VALID,1008.39,VALID,0,VALID,104,VALID,0,VALID,23.0723,VALID,70,VALID,0.582812,
2010-12-14, 01:47:04,VALID,1008.39,VALID,0.5,VALID,104,VALID,0,VALID,23.0511,VALID,64,VALID,0.607813,
2010-12-14, 01:48:04,VALID,1008.36,VALID,0,VALID,104,VALID,0,VALID,23.0511,VALID,62,VALID,0.775391,
2010-12-14, 01:49:04,VALID,1008.41,VALID,0,VALID,104,VALID,0,VALID,23.0511,VALID,62,VALID,0.437109,
2010-12-14, 01:50:04,VALID,1008.4,VALID,0,VALID,104,VALID,0,VALID,23.0705,VALID,62,VALID,0.182031,
2010-12-14, 01:51:04,VALID,1008.4,VALID,0,VALID,104,VALID,0,VALID,23.0705,VALID,54,VALID,0.354297,
2010-12-14, 01:52:04,VALID,1008.39,VALID,0,VALID,104,VALID,0,VALID,23.0705,VALID,62,VALID,0.273047,
2010-12-14, 01:53:04,VALID,1008.38,VALID,0,VALID,104,VALID,0,VALID,23.0511,VALID,75,VALID,0.501562,
2010-12-14, 01:54:04,VALID,1008.36,VALID,0,VALID,104,VALID,0,VALID,23.0511,VALID,65,VALID,0.51875,
2010-12-14, 01:55:04,VALID,1008.33,VALID,0,VALID,104,VALID,0,VALID,23.0316,VALID,65,VALID,0.1,
2010-12-14, 01:56:04,VALID,1008.36,VALID,0,VALID,104,VALID,0,VALID,23.0511,VALID,65,VALID,0.394141,
2010-12-14, 01:57:04,VALID,1008.33,VALID,0,VALID,104,VALID,0,VALID,23.0528,VALID,42,VALID,0.617578,
2010-12-14, 01:58:04,VALID,1008.34,VALID,0,VALID,104,VALID,0,VALID,23.0121,VALID,32,VALID,0.310156,
2010-12-14, 01:59:04,VALID,1008.32,VALID,0,VALID,104,VALID,0,VALID,23.0121,VALID,32,VALID,0.171094,
2010-12-14, 02:00:04,VALID,1008.3,VALID,0,VALID,104,VALID,0,VALID,23.0121,VALID,33,VALID,0.430859,
2010-12-14, 02:01:04,VALID,1008.31,VALID,0,VALID,104,VALID,0,VALID,22.9926,VALID,52,VALID,0.464453,
2010-12-14, 02:02:04,VALID,1008.3,VALID,0,VALID,104,VALID,0,VALID,23.0121,VALID,66,VALID,0.301172,
2010-12-14, 02:03:04,VALID,1008.3,VALID,0,VALID,104,VALID,0,VALID,23.0121,VALID,66,VALID,0.235938,
2010-12-14, 02:04:04,VALID,1008.31,VALID,0,VALID,104,VALID,0,VALID,23.0121,VALID,66,VALID,0,
2010-12-14, 02:05:04,VALID,1008.31,VALID,0,VALID,104,VALID,0,VALID,23.0121,VALID,66,VALID,0.15,
2010-12-14, 02:06:04,VALID,1008.29,VALID,0,VALID,104,VALID,0,VALID,23.0121,VALID,15,VALID,0.205469,
2010-12-14, 02:07:04,VALID,1008.3,VALID,0,VALID,104,VALID,0,VALID,23.0121,VALID,54,VALID,0.410156,
2010-12-14, 02:08:04,VALID,1008.3,VALID,0,VALID,104,VALID,0,VALID,23.0121,VALID,10,VALID,0.363672,
2010-12-14, 02:09:04,VALID,1008.28,VALID,0,VALID,104,VALID,0,VALID,22.9926,VALID,9,VALID,0,
2010-12-14, 02:10:04,VALID,1008.27,VALID,0,VALID,104,VALID,0,VALID,22.9926,VALID,43,VALID,0.599609,
2010-12-14, 02:11:04,VALID,1008.27,VALID,0,VALID,104,VALID,0,VALID,22.9926,VALID,43,VALID,0.200781,
2010-12-14, 02:12:04,VALID,1008.27,VALID,0,VALID,104,VALID,0,VALID,22.9926,VALID,43,VALID,0.00273437,
2010-12-14, 02:13:04,VALID,1008.25,VALID,0,VALID,104,VALID,0,VALID,22.9926,VALID,43,VALID,0,
2010-12-14, 02:14:04,VALID,1008.22,VALID,0,VALID,104,VALID,0,VALID,22.9926,VALID,43,VALID,0,
2010-12-14, 02:15:04,VALID,1008.21,VALID,0,VALID,104,VALID,0,VALID,22.9926,VALID,43,VALID,0.325391,
2010-12-14, 02:16:04,VALID,1008.21,VALID,0,VALID,104,VALID,0,VALID,22.9731,VALID,43,VALID,0,
2010-12-14, 02:17:04,VALID,1008.21,VALID,0,VALID,104,VALID,0,VALID,22.9714,VALID,43,VALID,0,
2010-12-14, 02:18:04,VALID,1008.21,VALID,0,VALID,104,VALID,0,VALID,22.9926,VALID,43,VALID,0.00898437,
2010-12-14, 02:19:04,VALID,1008.19,VALID,0,VALID,104,VALID,0,VALID,22.9519,VALID,43,VALID,0,
2010-12-14, 02:20:04,VALID,1008.19,VALID,0,VALID,104,VALID,0,VALID,22.9731,VALID,43,VALID,0.138281,
2010-12-14, 02:21:04,VALID,1008.2,VALID,0,VALID,104,VALID,0,VALID,22.9926,VALID,43,VALID,0.370313,
2010-12-14, 02:22:04,VALID,1008.16,VALID,0,VALID,104,VALID,0,VALID,22.9731,VALID,43,VALID,0.24375,
2010-12-14, 02:23:04,VALID,1008.16,VALID,0,VALID,104,VALID,0,VALID,22.9731,VALID,43,VALID,0.327344,
2010-12-14, 02:24:04,VALID,1008.14,VALID,0,VALID,104,VALID,0,VALID,23.0121,VALID,43,VALID,0.00117188,
2010-12-14, 02:25:04,VALID,1008.12,VALID,0,VALID,104,VALID,0,VALID,23.0121,VALID,62,VALID,0.416797,
2010-12-14, 02:26:04,VALID,1008.13,VALID,0,VALID,104,VALID,0,VALID,22.9926,VALID,42,VALID,0.279297,
2010-12-14, 02:27:04,VALID,1008.11,VALID,0,VALID,104,VALID,0,VALID,22.9926,VALID,40,VALID,0.367578,
2010-12-14, 02:28:04,VALID,1008.08,VALID,0,VALID,104,VALID,0,VALID,22.9926,VALID,61,VALID,0.510547,
2010-12-14, 02:29:04,VALID,1008.09,VALID,0,VALID,104,VALID,0,VALID,22.9926,VALID,54,VALID,0.597656,
2010-12-14, 02:30:04,VALID,1008.08,VALID,0,VALID,104,VALID,0,VALID,22.9926,VALID,62,VALID,0.574219,
2010-12-14, 02:31:04,VALID,1008.05,VALID,0,VALID,104,VALID,0,VALID,23.0121,VALID,35,VALID,0.389453,
2010-12-14, 02:32:04,VALID,1008.04,VALID,0,VALID,104,VALID,0,VALID,23.0316,VALID,50,VALID,0.563672,
2010-12-14, 02:33:04,VALID,1008.02,VALID,0,VALID,104,VALID,0.105969,VALID,23.0121,VALID,45,VALID,0.289453,
2010-12-14, 02:34:04,VALID,1007.99,VALID,0,VALID,104,VALID,0,VALID,23.0121,VALID,55,VALID,0.562891,
2010-12-14, 02:35:04,VALID,1007.97,VALID,0,VALID,104,VALID,0,VALID,23.0316,VALID,64,VALID,0.747656,
2010-12-14, 02:36:04,VALID,1007.93,VALID,0,VALID,104,VALID,0,VALID,23.0316,VALID,72,VALID,0.595703,
2010-12-14, 02:37:04,VALID,1007.91,VALID,0,VALID,104,VALID,0,VALID,23.0316,VALID,66,VALID,0.500391,
2010-12-14, 02:38:04,VALID,1007.91,VALID,0,VALID,104,VALID,0.105969,VALID,23.0511,VALID,66,VALID,0.394922,
2010-12-14, 02:39:04,VALID,1007.89,VALID,0,VALID,104,VALID,0,VALID,23.0511,VALID,79,VALID,0.7375,
2010-12-14, 02:40:04,VALID,1007.88,VALID,0,VALID,104,VALID,0,VALID,23.0511,VALID,58,VALID,0.439453,
2010-12-14, 02:41:04,VALID,1007.89,VALID,0,VALID,104,VALID,0,VALID,23.0511,VALID,58,VALID,0,
2010-12-14, 02:42:04,VALID,1007.89,VALID,0,VALID,104,VALID,0,VALID,23.0511,VALID,58,VALID,0.000390625,
2010-12-14, 02:43:04,VALID,1007.89,VALID,0,VALID,104,VALID,0,VALID,23.0511,VALID,45,VALID,0.408203,
2010-12-14, 02:44:04,VALID,1007.86,VALID,0,VALID,104,VALID,0.105969,VALID,23.0511,VALID,61,VALID,0.721484,
2010-12-14, 02:45:04,VALID,1007.85,VALID,0,VALID,104,VALID,0,VALID,23.0511,VALID,65,VALID,0.396094,
2010-12-14, 02:46:04,VALID,1007.85,VALID,0,VALID,104,VALID,0,VALID,23.0511,VALID,70,VALID,0.428906,
2010-12-14, 02:47:04,VALID,1007.84,VALID,0,VALID,104,VALID,0,VALID,23.0723,VALID,60,VALID,0.329297,
2010-12-14, 02:48:04,VALID,1007.84,VALID,0,VALID,104,VALID,0,VALID,23.0511,VALID,43,VALID,0.365234,
2010-12-14, 02:49:04,VALID,1007.83,VALID,0,VALID,104,VALID,0,VALID,23.0511,VALID,43,VALID,0.267578,
2010-12-14, 02:50:04,VALID,1007.86,VALID,0,VALID,104,VALID,0,VALID,23.0511,VALID,41,VALID,0.488281,
2010-12-14, 02:51:04,VALID,1007.85,VALID,0,VALID,104,VALID,0,VALID,23.0705,VALID,37,VALID,0,
2010-12-14, 02:52:04,VALID,1007.86,VALID,0,VALID,104,VALID,0,VALID,23.0705,VALID,37,VALID,0.000390625,
2010-12-14, 02:53:04,VALID,1007.87,VALID,0,VALID,104,VALID,0,VALID,23.0705,VALID,37,VALID,0.103906,
2010-12-14, 02:54:04,VALID,1007.87,VALID,0,VALID,104,VALID,0,VALID,23.0511,VALID,37,VALID,0,
2010-12-14, 02:55:04,VALID,1007.91,VALID,0,VALID,104,VALID,0,VALID,23.0511,VALID,37,VALID,0.35,
2010-12-14, 02:56:04,VALID,1007.89,VALID,0,VALID,104,VALID,0,VALID,23.0511,VALID,37,VALID,0.255469,
2010-12-14, 02:57:04,VALID,1007.9,VALID,0,VALID,104,VALID,0,VALID,23.0511,VALID,40,VALID,0.129297,
2010-12-14, 02:58:04,VALID,1007.88,VALID,0,VALID,104,VALID,0,VALID,23.0705,VALID,40,VALID,0.0464844,
2010-12-14, 02:59:04,VALID,1007.86,VALID,0.5,VALID,104,VALID,0,VALID,23.09,VALID,40,VALID,0.00195313,
2010-12-14, 03:00:04,VALID,1007.87,VALID,0,VALID,104,VALID,0,VALID,23.0705,VALID,50,VALID,0.176953,
2010-12-14, 03:01:04,VALID,1007.83,VALID,0,VALID,104,VALID,0,VALID,23.0511,VALID,50,VALID,0,
2010-12-14, 03:02:04,VALID,1007.86,VALID,0,VALID,104,VALID,0,VALID,23.0493,VALID,50,VALID,0,
2010-12-14, 03:03:04,VALID,1007.84,VALID,0,VALID,104,VALID,0,VALID,23.0511,VALID,50,VALID,0,
2010-12-14, 03:04:04,VALID,1007.82,VALID,0,VALID,104,VALID,0,VALID,23.0705,VALID,50,VALID,0,
2010-12-14, 03:05:04,VALID,1007.8,VALID,0,VALID,104,VALID,0,VALID,23.0723,VALID,50,VALID,0,
2010-12-14, 03:06:04,VALID,1007.78,VALID,0,VALID,104,VALID,0,VALID,23.0705,VALID,50,VALID,0,
2010-12-14, 03:07:04,VALID,1007.78,VALID,0,VALID,104,VALID,0,VALID,23.0511,VALID,80,VALID,0.451953,
2010-12-14, 03:08:04,VALID,1007.77,VALID,0,VALID,104,VALID,0,VALID,23.0705,VALID,80,VALID,0.391016,
2010-12-14, 03:09:04,VALID,1007.75,VALID,0,VALID,104,VALID,0,VALID,23.09,VALID,80,VALID,0.373828,
2010-12-14, 03:10:04,VALID,1007.73,VALID,0,VALID,104,VALID,0,VALID,23.0918,VALID,80,VALID,0.315234,
2010-12-14, 03:11:04,VALID,1007.69,VALID,0,VALID,104,VALID,0,VALID,23.09,VALID,80,VALID,0.0429688,
2010-12-14, 03:12:04,VALID,1007.7,VALID,0,VALID,104,VALID,0,VALID,23.1095,VALID,80,VALID,0.336719,
2010-12-14, 03:13:04,VALID,1007.68,VALID,0,VALID,104,VALID,0,VALID,23.09,VALID,80,VALID,0.0398437,
2010-12-14, 03:14:04,VALID,1007.7,VALID,0,VALID,104,VALID,0,VALID,23.09,VALID,80,VALID,0,
2010-12-14, 03:15:04,VALID,1007.71,VALID,0,VALID,104,VALID,0,VALID,23.09,VALID,80,VALID,0,
2010-12-14, 03:16:04,VALID,1007.69,VALID,0,VALID,104,VALID,0,VALID,23.09,VALID,80,VALID,0.527734,
2010-12-14, 03:17:04,VALID,1007.72,VALID,0,VALID,104,VALID,0,VALID,23.1112,VALID,80,VALID,0.0429688,
2010-12-14, 03:18:04,VALID,1007.71,VALID,0,VALID,104,VALID,0,VALID,23.09,VALID,80,VALID,0,
2010-12-14, 03:19:04,VALID,1007.69,VALID,0,VALID,104,VALID,0,VALID,23.09,VALID,80,VALID,0.1875,
2010-12-14, 03:20:04,VALID,1007.71,VALID,0,VALID,104,VALID,0,VALID,23.129,VALID,80,VALID,0,
2010-12-14, 03:21:04,VALID,1007.74,VALID,0,VALID,104,VALID,0,VALID,23.1095,VALID,80,VALID,0,
2010-12-14, 03:22:04,VALID,1007.73,VALID,0,VALID,104,VALID,0,VALID,23.129,VALID,80,VALID,0.06875,
2010-12-14, 03:23:04,VALID,1007.75,VALID,0,VALID,104,VALID,0,VALID,23.1485,VALID,80,VALID,0.144922,
2010-12-14, 03:24:04,VALID,1007.73,VALID,0,VALID,104,VALID,0,VALID,23.1485,VALID,80,VALID,0.475391,
2010-12-14, 03:25:04,VALID,1007.73,VALID,0,VALID,104,VALID,0,VALID,23.1485,VALID,80,VALID,0.276953,
2010-12-14, 03:26:04,VALID,1007.72,VALID,0,VALID,104,VALID,0,VALID,23.1679,VALID,80,VALID,0.294922,
2010-12-14, 03:27:04,VALID,1007.72,VALID,0,VALID,104,VALID,0,VALID,23.1679,VALID,80,VALID,0.00273437,
2010-12-14, 03:28:04,VALID,1007.7,VALID,0,VALID,104,VALID,0,VALID,23.1679,VALID,80,VALID,0.123828,
2010-12-14, 03:29:04,VALID,1007.72,VALID,0,VALID,104,VALID,0,VALID,23.1679,VALID,80,VALID,0.609766,
2010-12-14, 03:30:04,VALID,1007.68,VALID,0,VALID,104,VALID,0,VALID,23.1874,VALID,80,VALID,0.202734,
2010-12-14, 03:31:04,VALID,1007.67,VALID,0,VALID,104,VALID,0,VALID,23.2069,VALID,80,VALID,0.564062,
2010-12-14, 03:32:04,VALID,1007.66,VALID,0,VALID,104,VALID,0,VALID,23.2069,VALID,80,VALID,0.651563,
2010-12-14, 03:33:04,VALID,1007.68,VALID,0,VALID,104,VALID,0,VALID,23.2069,VALID,80,VALID,0.548828,
2010-12-14, 03:34:04,VALID,1007.66,VALID,0,VALID,104,VALID,0,VALID,23.2264,VALID,80,VALID,0.304688,
2010-12-14, 03:35:04,VALID,1007.62,VALID,0,VALID,104,VALID,0,VALID,23.2459,VALID,84,VALID,0.992969,
2010-12-14, 03:36:04,VALID,1007.61,VALID,0,VALID,104,VALID,0,VALID,23.2264,VALID,98,VALID,0.583984,
2010-12-14, 03:37:04,VALID,1007.64,VALID,0,VALID,104,VALID,0,VALID,23.2866,VALID,98,VALID,0.323047,
2010-12-14, 03:38:04,VALID,1007.66,VALID,0,VALID,104,VALID,0,VALID,23.2654,VALID,98,VALID,0.667578,
2010-12-14, 03:39:04,VALID,1007.64,VALID,0,VALID,104,VALID,0,VALID,23.2654,VALID,98,VALID,0.199609,
2010-12-14, 03:40:04,VALID,1007.64,VALID,0,VALID,104,VALID,0,VALID,23.2848,VALID,98,VALID,0.322656,
2010-12-14, 03:41:04,VALID,1007.65,VALID,0,VALID,104,VALID,0,VALID,23.3061,VALID,98,VALID,0.305859,
2010-12-14, 03:42:04,VALID,1007.66,VALID,0,VALID,104,VALID,0,VALID,23.2654,VALID,112,VALID,0.684375,
2010-12-14, 03:43:04,VALID,1007.64,VALID,0,VALID,104,VALID,0,VALID,23.2441,VALID,114,VALID,0.682422,
2010-12-14, 03:44:04,VALID,1007.67,VALID,0,VALID,104,VALID,0,VALID,23.2654,VALID,114,VALID,0.702734,
2010-12-14, 03:45:04,VALID,1007.66,VALID,0,VALID,104,VALID,0,VALID,23.2459,VALID,114,VALID,0.574609,
2010-12-14, 03:46:04,VALID,1007.67,VALID,0,VALID,104,VALID,0,VALID,23.2264,VALID,102,VALID,0.793359,
2010-12-14, 03:47:04,VALID,1007.66,VALID,0,VALID,104,VALID,0,VALID,23.2264,VALID,112,VALID,0.923828,
2010-12-14, 03:48:04,VALID,1007.66,VALID,0,VALID,104,VALID,0,VALID,23.2264,VALID,114,VALID,0.815625,
2010-12-14, 03:49:04,VALID,1007.66,VALID,0,VALID,104,VALID,0,VALID,23.2264,VALID,121,VALID,0.593359,
2010-12-14, 03:50:04,VALID,1007.61,VALID,0,VALID,104,VALID,0,VALID,23.2069,VALID,121,VALID,0.779297,
2010-12-14, 03:51:04,VALID,1007.59,VALID,0,VALID,104,VALID,0,VALID,23.2069,VALID,111,VALID,0.937891,
2010-12-14, 03:52:04,VALID,1007.59,VALID,0,VALID,104,VALID,0,VALID,23.2069,VALID,110,VALID,0.776172,
2010-12-14, 03:53:04,VALID,1007.6,VALID,0,VALID,104,VALID,0,VALID,23.2069,VALID,111,VALID,0.446484,
2010-12-14, 03:54:04,VALID,1007.57,VALID,0,VALID,104,VALID,0,VALID,23.1874,VALID,121,VALID,0.394141,
2010-12-14, 03:55:04,VALID,1007.55,VALID,0,VALID,104,VALID,0,VALID,23.2069,VALID,121,VALID,0.266797,
2010-12-14, 03:56:04,VALID,1007.51,VALID,0,VALID,104,VALID,0,VALID,23.2282,VALID,117,VALID,0.420312,